Location: Hodgeman County Ambulance
(38.0844°N, 99.8949°W)
Time: 14:33:14
(UTC+00:00)

Meteor 2-15 - Pass Details

Date: 27 October 2020
Orbit: 935 x 956 km, 82.5° (Epoch: 04 December)

Event Time Altitude Azimuth Distance (km) Brightness Sun altitude
Rises 12:27:27 0° 352° (N) 3,617 7.3 -7.2°
Reaches altitude 10° 12:29:57 10° 352° (N) 2,666 6.6 -6.7°
Maximum altitude 12:36:03 89° 266° (W) 944 4.5 -5.6°
Drops below altitude 10° 12:42:06 10° 175° (S) 2,638 7.0 -4.4°
Sets 12:44:33 0° 175° (S) 3,577 7.7 -3.9°
